Location: Drocourt
(49.0571°N, 1.7669°E)
Time: 13:40:01
(UTC+00:00)

SR - Pass Details

Date: 13 April 2024
Orbit: 579 x 859 km, 66.7° (Epoch: 28 May)

Event Time Altitude Azimuth Distance (km) Brightness Sun altitude
Rises 12:46:36 0° 316° (NW) 2,996 ? 48.8°
Reaches altitude 10° 12:49:17 10° 303° (WNW) 2,034 ? 48.6°
Maximum altitude 12:52:59 25° 249° (WSW) 1,249 ? 48.4°
Drops below altitude 10° 12:56:31 10° 193° (SSW) 1,925 ? 48.1°
Sets 12:58:59 0° 180° (S) 2,800 ? 48.0°
